RH
99 92 88 83 83 84 82 85 86 86 84 81 84 82 78 74 84 89 91 98 100 100 99 100 98 97 96
94 88 86 86 86 82 82 86 87 86 86 86 86 94 92 88 87 88 92 93 96 97 98 92 92 93 96
91 86 84 85 82 79 78 79 75 77 82 86 90 94 96 86 93 96 91 90 94 99 100 99 99 99 100
85 80 76 68 62 57 60 42 31 28 30 46 69 82 88 87 84 79 85 94 92 91 94 95 95 92 92
58 48 28 24 20 17 15 12 14 13 23 24 18 24 28 42 68 80 85 79 80 90 95 95 97 96 96
9 11 18 21 18 16 13 13 16 23 20 19 14 16 18 16 13 11 15 29 54 77 88 94 96 96 97
9 14 19 15 16 14 15 16 17 16 18 14 14 20 14 15 13 15 12 12 12 12 14 18 25 30 30
10 13 14 14 16 13 15 17 21 24 26 20 20 23 27 29 28 33 32 32 28 25 20 16 17 18 21
11 11 11 12 12 12 11 15 18 35 30 40 34 33 33 35 36 35 37 38 39 40 42 43 42 53 74
11 12 13 13 12 12 14 16 18 34 47 46 40 39 37 36 40 41 42 41 40 42 43 45 48 49 49
13 14 15 15 16 18 20 25 36 42 43 45 45 43 41 38 38 46 45 46 49 50 49 48 48 48 44
14 14 14 16 17 24 27 32 35 39 45 47 46 49 52 46 40 46 49 51 51 52 54 55 56 57 57
12 12 13 15 17 18 18 18 19 29 40 46 48 51 54 56 50 44 42 41 48 54 59 56 57 62 62
16 14 14 14 16 17 17 18 16 17 19 23 30 41 47 49 49 40 42 47 45 50 55 52 54 56 58
19 17 17 17 17 18 19 21 20 20 23 26 30 36 38 39 41 44 54 62 70 70 73 64 62 63 61
25 23 22 21 21 22 23 24 26 28 31 35 40 45 53 55 65 69 70 73 78 81 83 84 70 66 67
29 30 30 29 28 29 30 32 34 38 42 46 52 60 75 78 69 79 74 76 79 78 82 81 80 72 71
Wind_Speed
18 14 11 13 15 17 15 12 9 9 10 12 9 8 6 4 5 3 2 7 15 20 17 13 12 12 15
14 11 14 14 14 13 11 10 10 10 11 11 10 7 6 5 5 4 4 6 8 11 13 14 18 20 19
14 12 12 9 11 11 10 11 10 10 10 10 10 10 10 9 10 10 9 11 12 13 14 14 15 15 16
12 10 9 9 9 9 9 11 11 10 10 11 10 10 11 12 13 13 15 13 14 16 19 20 19 20 20
10 9 9 10 10 11 11 9 12 10 8 10 10 10 12 12 12 13 14 16 18 18 17 18 19 20 19
9 10 11 10 10 10 11 8 7 9 8 9 10 10 11 13 14 15 14 15 15 16 17 18 18 19 18
8 8 10 10 11 9 9 9 8 9 8 5 6 6 8 9 8 9 10 12 14 16 18 19 19 20 20
7 8 8 9 9 8 8 7 6 7 6 5 5 5 6 9 7 7 7 7 7 9 11 13 14 15 15
6 7 7 7 8 8 7 5 4 6 7 6 6 7 8 7 6 6 6 7 7 8 9 10 12 11 11
6 6 6 6 7 6 5 5 5 5 5 8 10 10 5 5 3 9 9 10 11 11 11 12 13 14 14
8 8 7 7 6 6 7 7 7 8 12 11 11 13 10 11 8 11 10 9 9 11 13 14 15 17 17
8 9 9 10 8 8 9 11 12 12 12 14 16 14 14 16 15 12 12 13 13 13 14 14 15 16 17
9 9 9 9 11 11 12 12 13 12 13 13 14 14 15 17 20 20 19 14 12 8 10 15 15 16 17
10 10 10 10 10 12 12 13 12 11 11 12 11 13 15 16 19 20 18 18 18 16 17 16 17 18 18
11 11 11 12 11 12 12 13 14 13 12 12 11 12 13 17 20 20 18 17 15 16 18 19 18 17 16
12 12 12 13 13 13 14 15 15 14 14 13 14 16 18 18 18 17 16 17 15 16 17 21 24 19 16
14 14 14 14 14 14 15 16 16 16 15 15 16 17 20 23 23 18 18 15 20 23 23 22 26 25 22
Wind_Direction
269 280 289 294 295 298 309 312 309 305 308 317 318 315 321 312 268 269 164 125 153 167 175 192 211 237 243
264 267 270 280 292 300 308 310 309 304 302 306 308 307 311 322 304 304 290 264 260 246 243 249 259 258 256
269 275 277 279 285 290 295 294 301 301 297 293 294 288 280 270 275 267 260 253 247 246 245 244 243 248 251
270 277 280 282 285 284 281 294 294 295 298 293 289 288 283 271 269 271 272 255 252 253 254 257 260 260 258
275 283 283 289 287 294 293 297 294 295 299 300 295 295 287 280 275 270 266 259 260 266 262 262 259 257 254
261 270 277 288 293 293 297 296 291 298 307 303 293 293 287 285 283 278 268 262 258 256 257 257 258 260 260
269 271 277 285 289 296 298 305 307 305 317 306 297 305 305 303 304 293 286 277 270 265 261 258 257 256 256
284 283 288 289 292 299 303 305 303 308 333 327 318 328 320 308 316 310 301 294 287 281 273 266 262 257 254
294 292 293 292 289 292 305 308 314 304 322 329 334 333 313 294 296 296 298 289 284 280 275 272 273 260 253
308 299 298 296 297 304 313 309 308 296 311 319 324 333 318 310 325 308 293 284 285 281 277 271 266 268 271
314 311 309 308 307 303 301 298 295 288 297 308 310 316 312 306 302 297 293 299 296 286 279 276 273 273 275
304 302 306 307 312 304 296 295 296 295 293 298 301 305 305 307 306 297 304 304 301 295 288 281 276 273 270
300 302 302 296 297 296 296 295 292 289 288 286 288 292 294 296 301 306 314 314 300 298 290 289 279 273 271
299 303 302 298 294 293 293 296 300 305 302 299 295 293 292 294 294 300 311 307 305 304 294 285 281 281 281
301 300 298 298 299 296 299 300 303 309 309 307 304 300 297 296 295 303 307 303 307 302 297 296 293 293 293
295 294 295 295 296 295 296 297 299 301 300 302 302 302 301 295 297 301 298 303 301 298 301 301 299 301 295
288 291 291 291 291 292 291 290 293 296 297 296 295 296 294 295 304 303 299 301 306 302 299 295 294 297 293